contact:dominique.lefevre@mio.osupytheas.fr, maurice.libes@osupytheas.fr, didier.mallarino@osupytheas.fr
Project:EMSO http://www.emso-fr.org/EMSO-France
Depth: 2436.0 m
Title:EMSO Ligure Ouest : Data MII capteur AQUADOPP
Date,Latitude,Longitude,X_East,Y_North,Z_Up,Amplitude_X,Amplitude_Y,Amplitude_Z,Batterie,SoundSpeed,Heading,Pitch,Roll,Pressure,TIS,Speed,Direction
, degrees North, degrees East, m.s-1, m.s-1,m.s-1, 1, 1, 1, Volt, m.s-1, degree, degree, degree, dbar, degree_C, m.s-1, degree
2021-06-09T00:04:03,42.805,6.029,-0.007,-0.006,0.025,101.0,104.0,100.0,13.4,1505.2,326.3,-0.8,1.8,2470.343,13.29,0.009,229.4
2021-06-09T00:07:03,42.805,6.029,-0.017,-0.001,0.0,101.0,102.0,100.0,13.4,1505.2,329.8,-0.7,1.8,2470.29,13.29,0.017,266.6
2021-06-09T00:10:03,42.805,6.029,0.002,-0.013,0.013,101.0,102.0,101.0,13.4,1505.2,327.2,-0.8,1.8,2470.305,13.29,0.013,171.3
2021-06-09T00:13:03,42.805,6.029,-0.003,-0.015,0.01,102.0,101.0,100.0,13.4,1505.2,330.0,-0.7,1.8,2470.325,13.29,0.015,191.3
2021-06-09T00:16:03,42.805,6.029,-0.012,-0.01,-0.009,101.0,101.0,100.0,13.4,1505.2,325.1,-0.7,1.8,2470.35,13.29,0.015,230.2
2021-06-09T00:19:03,42.805,6.029,-0.029,-0.018,-0.022,101.0,107.0,101.0,13.4,1505.2,326.4,-0.7,1.8,2470.31,13.29,0.034,238.2
2021-06-09T00:22:03,42.805,6.029,-0.026,-0.004,0.001,102.0,102.0,100.0,13.4,1505.2,325.7,-0.7,1.8,2470.311,13.29,0.026,261.3
2021-06-09T00:25:03,42.805,6.029,-0.036,-0.001,0.014,100.0,102.0,101.0,13.4,1505.2,328.0,-0.8,1.8,2470.354,13.29,0.036,268.4
2021-06-09T00:28:03,42.805,6.029,0.005,-0.023,0.012,102.0,101.0,100.0,13.4,1505.2,329.6,-0.8,1.8,2470.375,13.29,0.023,167.7
2021-06-09T00:31:03,42.805,6.029,-0.014,-0.013,0.015,102.0,103.0,100.0,13.4,1505.2,326.4,-0.8,1.8,2470.268,13.29,0.019,227.1
2021-06-09T00:34:03,42.805,6.029,-0.019,-0.01,0.006,102.0,100.0,100.0,13.3,1505.2,325.9,-0.8,1.8,2470.311,13.29,0.021,242.2
2021-06-09T00:37:03,42.805,6.029,-0.014,0.008,0.026,102.0,101.0,101.0,13.4,1505.2,329.9,-0.7,1.8,2470.319,13.29,0.016,299.7
2021-06-09T00:40:03,42.805,6.029,-0.021,-0.029,-0.002,102.0,102.0,100.0,13.4,1505.2,327.2,-0.7,1.8,2470.322,13.29,0.035,215.9
2021-06-09T00:43:03,42.805,6.029,0.008,-0.023,-0.015,102.0,103.0,101.0,13.4,1505.2,327.2,-0.7,1.8,2470.288,13.29,0.024,160.8
2021-06-09T00:46:03,42.805,6.029,-0.015,-0.008,0.03,101.0,102.0,100.0,13.4,1505.2,327.3,-0.7,1.8,2470.31,13.29,0.017,241.9
2021-06-09T00:49:03,42.805,6.029,-0.007,-0.01,0.009,101.0,101.0,101.0,13.3,1505.2,330.2,-0.8,1.8,2470.3,13.29,0.012,215.0
2021-06-09T00:52:03,42.805,6.029,-0.021,-0.02,0.0,102.0,103.0,100.0,13.3,1505.2,326.7,-0.8,1.8,2470.312,13.29,0.028,226.4
2021-06-09T00:55:03,42.805,6.029,-0.016,-0.024,-0.009,104.0,103.0,101.0,13.4,1505.2,328.9,-0.7,1.8,2470.317,13.29,0.028,213.7
2021-06-09T00:58:03,42.805,6.029,-0.029,-0.013,-0.03,100.0,104.0,102.0,13.4,1505.2,325.6,-0.8,1.8,2470.311,13.29,0.031,245.9
2021-06-09T01:04:03,42.805,6.029,-0.013,0.005,0.012,103.0,102.0,101.0,13.4,1505.2,329.4,-0.7,1.8,2470.356,13.29,0.013,291.0
2021-06-09T01:07:03,42.805,6.029,-0.021,-0.013,-0.017,100.0,103.0,100.0,13.4,1505.2,325.2,-0.7,1.8,2470.378,13.29,0.024,238.2
2021-06-09T01:10:03,42.805,6.029,-0.013,0.001,0.016,100.0,103.0,100.0,13.3,1505.2,327.8,-0.8,1.8,2470.351,13.29,0.013,274.4
2021-06-09T01:13:03,42.805,6.029,-0.021,-0.011,-0.009,99.0,102.0,101.0,13.3,1505.2,326.8,-0.8,1.8,2470.341,13.29,0.023,242.4
2021-06-09T01:16:03,42.805,6.029,-0.03,-0.001,0.025,102.0,102.0,101.0,13.3,1505.2,327.4,-0.8,1.8,2470.305,13.29,0.03,268.1
2021-06-09T01:19:03,42.805,6.029,-0.031,-0.003,0.014,101.0,104.0,100.0,13.4,1505.2,328.1,-0.8,1.8,2470.302,13.29,0.031,264.5
2021-06-09T01:22:03,42.805,6.029,0.005,0.001,-0.009,100.0,103.0,101.0,13.4,1505.2,327.6,-0.8,1.8,2470.295,13.29,0.005,78.7
2021-06-09T01:25:03,42.805,6.029,-0.026,-0.004,0.021,101.0,102.0,100.0,13.4,1505.2,326.3,-0.8,1.8,2470.308,13.29,0.026,261.3
2021-06-09T01:28:03,42.805,6.029,-0.011,-0.01,-0.022,101.0,102.0,101.0,13.4,1505.2,328.4,-0.8,1.8,2470.331,13.29,0.014,227.7
2021-06-09T01:31:03,42.805,6.029,-0.032,-0.003,-0.019,101.0,102.0,101.0,13.3,1505.2,328.1,-0.7,1.8,2470.316,13.29,0.032,264.6
2021-06-09T01:34:03,42.805,6.029,-0.013,-0.001,0.024,102.0,103.0,99.0,13.3,1505.2,327.2,-0.8,1.8,2470.315,13.29,0.013,265.6
2021-06-09T01:37:03,42.805,6.029,0.003,-0.01,-0.014,100.0,102.0,101.0,13.4,1505.2,329.7,-0.8,1.8,2470.334,13.29,0.01,163.3
2021-06-09T01:40:03,42.805,6.029,-0.016,-0.024,0.0,102.0,103.0,100.0,13.4,1505.2,324.6,-0.8,1.8,2470.318,13.29,0.028,213.7
2021-06-09T01:43:03,42.805,6.029,-0.009,-0.018,0.047,101.0,102.0,101.0,13.3,1505.2,328.5,-0.7,1.8,2470.319,13.29,0.02,206.6
2021-06-09T01:46:03,42.805,6.029,-0.028,-0.013,-0.032,100.0,101.0,101.0,13.3,1505.2,327.9,-0.7,1.8,2470.306,13.29,0.03,245.1
2021-06-09T01:49:03,42.805,6.029,-0.025,0.007,0.026,102.0,102.0,102.0,13.4,1505.2,327.8,-0.8,1.9,2470.309,13.29,0.025,285.6
2021-06-09T01:52:03,42.805,6.029,0.0,-0.014,0.009,104.0,102.0,100.0,13.4,1505.2,326.3,-0.7,1.8,2470.304,13.29,0.014,180.0
2021-06-09T01:55:03,42.805,6.029,-0.015,-0.007,0.022,100.0,103.0,101.0,13.4,1505.2,327.1,-0.7,1.8,2470.317,13.29,0.016,245.0
2021-06-09T01:58:03,42.805,6.029,-0.012,0.003,-0.011,102.0,103.0,100.0,13.3,1505.2,327.8,-0.8,1.8,2470.325,13.29,0.012,284.0
2021-06-09T02:04:03,42.805,6.029,0.001,-0.013,0.022,104.0,100.0,101.0,13.4,1505.2,327.7,-0.8,1.8,2470.35,13.29,0.013,175.6
2021-06-09T02:07:03,42.805,6.029,-0.012,-0.007,-0.006,103.0,102.0,100.0,13.4,1505.2,326.8,-0.7,1.8,2470.324,13.29,0.013,239.7
2021-06-09T02:10:03,42.805,6.029,-0.012,-0.013,0.03,103.0,102.0,99.0,13.4,1505.2,329.6,-0.8,1.8,2470.32,13.29,0.017,222.7
2021-06-09T02:13:03,42.805,6.029,-0.006,-0.001,0.034,102.0,101.0,100.0,13.4,1505.2,326.3,-0.7,1.8,2470.32,13.29,0.006,260.5
2021-06-09T02:16:03,42.805,6.029,-0.028,-0.009,-0.008,101.0,101.0,101.0,13.3,1505.2,327.0,-0.8,1.8,2470.326,13.29,0.029,252.2
2021-06-09T02:19:03,42.805,6.029,-0.035,-0.022,-0.001,102.0,102.0,100.0,13.4,1505.2,329.6,-0.8,1.8,2470.312,13.29,0.041,237.8
2021-06-09T02:22:03,42.805,6.029,-0.017,-0.023,-0.011,102.0,103.0,100.0,13.3,1505.2,329.4,-0.8,1.8,2470.324,13.29,0.028,216.5
2021-06-09T02:25:03,42.805,6.029,-0.005,0.0,-0.016,100.0,103.0,98.0,13.4,1505.2,329.5,-0.8,1.8,2470.313,13.29,0.005,270.0
2021-06-09T02:28:03,42.805,6.029,-0.056,-0.005,-0.023,101.0,102.0,100.0,13.3,1505.2,326.3,-0.8,1.8,2470.304,13.29,0.056,264.9
2021-06-09T02:31:03,42.805,6.029,-0.016,-0.015,-0.021,101.0,102.0,100.0,13.4,1505.2,327.0,-0.8,1.8,2470.283,13.29,0.021,226.9
2021-06-09T02:34:03,42.805,6.029,-0.032,-0.012,0.008,101.0,102.0,101.0,13.4,1505.2,326.3,-0.8,1.8,2470.309,13.29,0.034,249.4
2021-06-09T02:37:03,42.805,6.029,-0.011,-0.018,-0.001,102.0,101.0,101.0,13.3,1505.2,325.9,-0.8,1.8,2470.285,13.29,0.021,211.4
2021-06-09T02:40:03,42.805,6.029,-0.012,0.0,0.035,99.0,106.0,100.0,13.3,1505.2,329.7,-0.7,1.9,2470.35,13.29,0.012,270.0
2021-06-09T02:43:03,42.805,6.029,-0.027,-0.011,-0.049,100.0,102.0,100.0,13.4,1505.2,330.2,-0.7,1.8,2470.304,13.29,0.029,247.8
2021-06-09T02:46:03,42.805,6.029,-0.014,-0.011,0.002,99.0,101.0,102.0,13.4,1505.2,326.1,-0.8,1.8,2470.331,13.29,0.017,231.8
2021-06-09T02:49:03,42.805,6.029,-0.013,-0.002,0.006,103.0,101.0,102.0,13.4,1505.2,327.7,-0.7,1.9,2470.327,13.29,0.013,261.3
2021-06-09T02:52:03,42.805,6.029,-0.042,0.023,-0.009,101.0,103.0,101.0,13.4,1505.2,329.5,-0.7,1.8,2470.361,13.29,0.047,298.7
2021-06-09T02:55:03,42.805,6.029,-0.018,-0.01,-0.021,101.0,101.0,101.0,13.4,1505.2,328.0,-0.8,1.8,2470.338,13.29,0.02,240.9
2021-06-09T02:58:03,42.805,6.029,0.002,-0.017,-0.004,102.0,102.0,101.0,13.4,1505.2,329.5,-0.7,1.8,2470.335,13.29,0.017,173.3
2021-06-09T03:04:03,42.805,6.029,-0.037,-0.012,-0.008,101.0,104.0,100.0,13.3,1505.2,328.9,-0.8,1.8,2470.434,13.29,0.038,252.0
2021-06-09T03:07:03,42.805,6.029,-0.036,-0.014,0.0,101.0,102.0,101.0,13.3,1505.2,329.2,-0.8,1.8,2470.42,13.29,0.038,248.8
2021-06-09T03:10:03,42.805,6.029,-0.021,0.005,-0.009,102.0,101.0,101.0,13.4,1505.2,328.0,-0.8,1.8,2470.342,13.29,0.021,283.4
2021-06-09T03:13:03,42.805,6.029,0.001,-0.025,0.004,103.0,104.0,100.0,13.4,1505.2,329.8,-0.8,1.8,2470.434,13.29,0.025,177.7
2021-06-09T03:16:03,42.805,6.029,-0.035,-0.009,0.014,102.0,103.0,100.0,13.4,1505.2,327.2,-0.8,1.8,2470.446,13.29,0.036,255.6
2021-06-09T03:19:03,42.805,6.029,-0.028,-0.003,-0.023,100.0,103.0,101.0,13.3,1505.2,329.0,-0.8,1.8,2470.469,13.29,0.028,263.9
2021-06-09T03:22:03,42.805,6.029,-0.02,-0.014,-0.043,101.0,103.0,100.0,13.4,1505.2,329.4,-0.8,1.8,2470.462,13.29,0.024,235.0
2021-06-09T03:25:03,42.805,6.029,0.001,-0.01,0.001,103.0,103.0,99.0,13.3,1505.2,327.3,-0.7,1.8,2470.444,13.29,0.01,174.3
2021-06-09T03:28:03,42.805,6.029,-0.024,-0.009,-0.019,103.0,100.0,101.0,13.3,1505.2,329.5,-0.8,1.8,2470.44,13.29,0.025,249.4
2021-06-09T03:31:03,42.805,6.029,-0.021,0.007,0.02,101.0,103.0,101.0,13.3,1505.2,325.4,-0.7,1.9,2470.478,13.29,0.022,288.4
2021-06-09T03:34:03,42.805,6.029,-0.018,-0.036,-0.032,102.0,103.0,100.0,13.3,1505.2,328.1,-0.8,1.8,2470.475,13.29,0.04,206.6
2021-06-09T03:37:03,42.805,6.029,-0.024,-0.031,0.008,101.0,102.0,101.0,13.3,1505.2,325.6,-0.7,1.8,2470.5,13.29,0.039,217.7
2021-06-09T03:40:03,42.805,6.029,-0.02,0.001,-0.006,102.0,101.0,100.0,13.4,1505.2,327.1,-0.8,1.8,2470.475,13.29,0.02,272.9
2021-06-09T03:43:03,42.805,6.029,-0.024,-0.031,0.016,101.0,103.0,100.0,13.4,1505.2,325.0,-0.8,1.8,2470.491,13.29,0.039,217.7
2021-06-09T03:46:03,42.805,6.029,-0.031,-0.004,0.038,103.0,101.0,100.0,13.4,1505.2,325.7,-0.7,1.8,2470.5,13.29,0.031,262.7
2021-06-09T03:49:03,42.805,6.029,-0.006,-0.033,-0.021,102.0,103.0,101.0,13.4,1505.2,329.6,-0.7,1.8,2470.487,13.29,0.033,190.3
2021-06-09T03:52:03,42.805,6.029,-0.021,-0.005,-0.01,102.0,103.0,100.0,13.4,1505.2,324.4,-0.7,1.8,2470.502,13.29,0.021,256.6
2021-06-09T03:55:03,42.805,6.029,-0.02,0.001,0.038,101.0,103.0,100.0,13.3,1505.2,327.7,-0.7,1.8,2470.485,13.29,0.02,272.9
2021-06-09T03:58:03,42.805,6.029,-0.035,-0.007,-0.025,101.0,102.0,100.0,13.4,1505.2,329.4,-0.8,1.8,2470.511,13.29,0.035,258.7
2021-06-09T04:04:03,42.805,6.029,-0.017,-0.014,-0.001,101.0,102.0,100.0,13.4,1505.2,325.7,-0.7,1.8,2470.53,13.29,0.022,230.5
2021-06-09T04:07:03,42.805,6.029,-0.012,0.002,0.014,101.0,102.0,101.0,13.3,1505.2,326.8,-0.7,1.8,2470.473,13.29,0.012,279.5
2021-06-09T04:10:03,42.805,6.029,0.002,-0.017,0.009,101.0,103.0,100.0,13.4,1505.2,326.5,-0.8,1.8,2470.467,13.29,0.017,173.3
2021-06-09T04:13:03,42.805,6.029,-0.034,-0.017,0.0,101.0,101.0,100.0,13.3,1505.2,328.3,-0.8,1.8,2470.481,13.29,0.038,243.4
2021-06-09T04:16:03,42.805,6.029,-0.015,-0.006,-0.023,102.0,102.0,101.0,13.4,1505.2,328.4,-0.8,1.8,2470.467,13.29,0.016,248.2
2021-06-09T04:19:03,42.805,6.029,0.002,0.0,0.029,102.0,102.0,100.0,13.4,1505.2,326.4,-0.8,1.8,2470.494,13.29,0.002,90.0
2021-06-09T04:22:03,42.805,6.029,-0.005,-0.007,0.012,101.0,101.0,101.0,13.4,1505.2,328.1,-0.7,1.9,2470.496,13.29,0.008,215.5
2021-06-09T04:25:03,42.805,6.029,-0.028,-0.003,0.008,100.0,102.0,101.0,13.4,1505.2,326.4,-0.8,1.9,2470.488,13.29,0.028,263.9
2021-06-09T04:28:03,42.805,6.029,-0.037,-0.005,-0.022,103.0,102.0,101.0,13.3,1505.2,329.7,-0.7,1.8,2470.495,13.29,0.037,262.3
2021-06-09T04:31:03,42.805,6.029,-0.001,-0.008,0.002,103.0,102.0,101.0,13.4,1505.2,328.2,-0.7,1.9,2470.509,13.29,0.008,187.1
2021-06-09T04:34:03,42.805,6.029,-0.014,0.005,-0.001,102.0,102.0,100.0,13.4,1505.2,327.7,-0.8,1.8,2470.542,13.29,0.014,289.6
2021-06-09T04:37:03,42.805,6.029,-0.017,-0.019,-0.021,104.0,103.0,100.0,13.4,1505.2,327.7,-0.7,1.8,2470.554,13.29,0.025,221.8
2021-06-09T04:40:03,42.805,6.029,-0.012,0.008,0.004,103.0,102.0,101.0,13.4,1505.2,328.6,-0.7,1.8,2470.526,13.29,0.014,303.7
2021-06-09T04:43:03,42.805,6.029,-0.006,-0.007,-0.001,102.0,101.0,101.0,13.4,1505.2,327.2,-0.7,1.8,2470.522,13.29,0.009,220.6
2021-06-09T04:46:03,42.805,6.029,-0.016,-0.008,-0.009,102.0,102.0,100.0,13.4,1505.2,329.4,-0.8,1.8,2470.58,13.29,0.017,243.4
2021-06-09T04:49:03,42.805,6.029,-0.019,-0.037,-0.027,101.0,102.0,100.0,13.3,1505.2,329.5,-0.7,1.8,2470.559,13.29,0.041,207.2
2021-06-09T04:52:03,42.805,6.029,-0.015,-0.005,0.005,102.0,102.0,100.0,13.4,1505.2,326.4,-0.7,1.8,2470.542,13.29,0.015,251.6
2021-06-09T04:55:03,42.805,6.029,0.01,-0.019,0.015,102.0,102.0,100.0,13.4,1505.2,326.8,-0.7,1.8,2470.624,13.29,0.021,152.2
2021-06-09T04:58:03,42.805,6.029,-0.027,-0.017,-0.009,102.0,102.0,100.0,13.4,1505.2,325.7,-0.8,1.8,2470.647,13.29,0.031,237.8
2021-06-09T05:04:03,42.805,6.029,-0.023,-0.006,0.004,102.0,101.0,102.0,13.3,1505.2,328.9,-0.7,1.9,2470.67,13.29,0.023,255.4
2021-06-09T05:07:03,42.805,6.029,-0.02,-0.006,0.023,103.0,102.0,101.0,13.4,1505.2,328.3,-0.8,1.8,2470.596,13.29,0.02,253.3
2021-06-09T05:10:03,42.805,6.029,-0.031,0.002,-0.04,103.0,102.0,101.0,13.3,1505.2,329.1,-0.7,1.8,2470.615,13.29,0.031,273.7
2021-06-09T05:13:03,42.805,6.029,-0.049,0.0,0.0,102.0,101.0,101.0,13.4,1505.2,325.1,-0.7,1.8,2470.634,13.29,0.049,270.0
2021-06-09T05:16:03,42.805,6.029,-0.022,-0.007,-0.009,101.0,102.0,100.0,13.4,1505.2,328.5,-0.8,1.8,2470.589,13.29,0.023,252.4
2021-06-09T05:19:03,42.805,6.029,-0.005,-0.017,0.014,103.0,102.0,100.0,13.3,1505.2,326.0,-0.7,1.8,2470.604,13.29,0.017,196.4
2021-06-09T05:22:03,42.805,6.029,-0.017,-0.027,0.005,104.0,101.0,101.0,13.4,1505.2,325.9,-0.7,1.8,2470.615,13.29,0.031,212.2
2021-06-09T05:25:03,42.805,6.029,-0.02,-0.017,0.013,102.0,102.0,103.0,13.4,1505.2,325.5,-0.7,1.8,2470.58,13.29,0.026,229.6
2021-06-09T05:28:03,42.805,6.029,-0.033,-0.006,0.001,102.0,103.0,100.0,13.3,1505.2,325.1,-0.8,1.8,2470.564,13.29,0.033,259.7
2021-06-09T05:31:03,42.805,6.029,-0.033,0.003,0.021,101.0,101.0,101.0,13.4,1505.2,327.7,-0.8,1.8,2470.559,13.29,0.033,275.2
2021-06-09T05:34:03,42.805,6.029,-0.035,-0.011,0.012,101.0,102.0,101.0,13.3,1505.2,325.6,-0.8,1.8,2470.596,13.29,0.036,252.6
2021-06-09T05:37:03,42.805,6.029,-0.016,-0.011,0.003,102.0,101.0,100.0,13.3,1505.2,329.4,-0.7,1.8,2470.544,13.29,0.019,235.5
2021-06-09T05:40:03,42.805,6.029,-0.02,-0.018,-0.011,103.0,102.0,100.0,13.4,1505.2,327.2,-0.8,1.8,2470.533,13.29,0.026,228.0
2021-06-09T05:43:03,42.805,6.029,-0.015,0.0,0.01,102.0,102.0,101.0,13.4,1505.2,327.9,-0.8,1.8,2470.531,13.29,0.015,270.0
2021-06-09T05:46:03,42.805,6.029,-0.024,-0.011,0.032,101.0,101.0,101.0,13.4,1505.2,324.8,-0.7,1.8,2470.475,13.29,0.026,245.4
2021-06-09T05:49:03,42.805,6.029,-0.02,-0.001,0.012,102.0,101.0,101.0,13.4,1505.2,327.8,-0.8,1.8,2470.495,13.29,0.02,267.1
2021-06-09T05:52:03,42.805,6.029,-0.031,-0.014,-0.029,103.0,101.0,100.0,13.3,1505.2,327.6,-0.8,1.8,2470.526,13.29,0.034,245.7
2021-06-09T05:55:03,42.805,6.029,-0.022,-0.004,0.005,101.0,101.0,101.0,13.4,1505.2,328.0,-0.8,1.8,2470.539,13.29,0.022,259.7
2021-06-09T05:58:03,42.805,6.029,-0.019,-0.01,-0.009,100.0,103.0,101.0,13.3,1505.2,328.4,-0.8,1.8,2470.552,13.29,0.021,242.2
2021-06-09T06:04:03,42.805,6.029,-0.004,-0.021,0.003,102.0,102.0,100.0,13.4,1505.2,326.8,-0.8,1.8,2470.603,13.28,0.021,190.8
2021-06-09T06:07:03,42.805,6.029,-0.003,-0.011,0.002,103.0,103.0,100.0,13.4,1505.2,326.3,-0.8,1.9,2470.599,13.28,0.011,195.3
2021-06-09T06:10:03,42.805,6.029,-0.007,0.001,0.036,102.0,101.0,101.0,13.4,1505.2,327.9,-0.7,1.8,2470.578,13.29,0.007,278.1
2021-06-09T06:13:03,42.805,6.029,-0.035,-0.006,0.023,104.0,101.0,101.0,13.3,1505.2,324.6,-0.8,1.8,2470.595,13.29,0.035,260.3
2021-06-09T06:16:03,42.805,6.029,-0.019,-0.013,0.014,101.0,102.0,100.0,13.3,1505.2,327.6,-0.7,1.8,2470.596,13.29,0.023,235.6
2021-06-09T06:19:03,42.805,6.029,-0.02,-0.026,-0.004,101.0,103.0,101.0,13.4,1505.2,329.8,-0.8,1.8,2470.608,13.29,0.032,217.6
2021-06-09T06:22:03,42.805,6.029,-0.024,-0.006,0.008,103.0,103.0,100.0,13.4,1505.2,327.6,-0.8,1.8,2470.612,13.29,0.024,256.0
2021-06-09T06:25:03,42.805,6.029,-0.027,-0.003,0.004,101.0,103.0,100.0,13.4,1505.2,328.1,-0.7,1.8,2470.657,13.29,0.027,263.7
2021-06-09T06:28:03,42.805,6.029,-0.015,-0.004,0.02,102.0,102.0,100.0,13.4,1505.2,327.1,-0.7,1.8,2470.663,13.29,0.015,255.1
2021-06-09T06:31:03,42.805,6.029,-0.014,0.001,0.004,101.0,102.0,101.0,13.4,1505.2,327.2,-0.7,1.8,2470.631,13.29,0.014,274.1
2021-06-09T06:34:03,42.805,6.029,-0.017,-0.005,-0.002,101.0,102.0,101.0,13.3,1505.2,329.8,-0.8,1.8,2470.649,13.29,0.017,253.6
2021-06-09T06:37:03,42.805,6.029,-0.026,-0.005,-0.005,102.0,102.0,100.0,13.4,1505.2,326.9,-0.7,1.8,2470.644,13.29,0.026,259.1
2021-06-09T06:40:03,42.805,6.029,-0.032,0.0,0.006,103.0,101.0,100.0,13.4,1505.2,326.1,-0.8,1.8,2470.68,13.29,0.032,270.0
2021-06-09T06:43:03,42.805,6.029,-0.011,0.003,0.0,101.0,102.0,100.0,13.3,1505.2,329.5,-0.8,1.8,2470.677,13.29,0.011,285.3
2021-06-09T06:46:03,42.805,6.029,-0.016,-0.013,0.026,102.0,102.0,100.0,13.4,1505.2,324.4,-0.7,1.8,2470.656,13.29,0.02,230.9
2021-06-09T06:49:03,42.805,6.029,-0.022,0.01,0.01,102.0,102.0,101.0,13.4,1505.2,327.6,-0.8,1.8,2470.665,13.29,0.024,294.4
2021-06-09T06:52:03,42.805,6.029,-0.022,-0.029,-0.012,101.0,104.0,100.0,13.4,1505.2,326.6,-0.7,1.8,2470.668,13.29,0.036,217.2
2021-06-09T06:55:03,42.805,6.029,-0.015,0.0,0.0,102.0,103.0,101.0,13.4,1505.2,328.6,-0.7,1.8,2470.64,13.29,0.015,270.0
2021-06-09T06:58:03,42.805,6.029,-0.012,-0.006,0.004,102.0,103.0,101.0,13.3,1505.2,325.3,-0.7,1.8,2470.66,13.29,0.013,243.4
2021-06-09T07:04:03,42.805,6.029,-0.017,-0.016,0.0,101.0,101.0,101.0,13.4,1505.2,326.4,-0.8,1.9,2470.718,13.28,0.023,226.7
2021-06-09T07:07:03,42.805,6.029,-0.003,0.008,0.014,102.0,101.0,100.0,13.4,1505.2,328.3,-0.8,1.8,2470.703,13.28,0.008,339.4
2021-06-09T07:10:03,42.805,6.029,-0.032,-0.001,-0.041,102.0,101.0,101.0,13.3,1505.2,330.3,-0.8,1.9,2470.626,13.29,0.032,268.2
2021-06-09T07:13:03,42.805,6.029,0.012,0.003,0.027,102.0,103.0,101.0,13.4,1505.2,325.2,-0.8,1.9,2470.684,13.29,0.012,76.0
2021-06-09T07:16:03,42.805,6.029,-0.03,0.002,0.005,102.0,101.0,101.0,13.4,1505.2,326.0,-0.7,1.8,2470.685,13.29,0.03,273.8
2021-06-09T07:19:03,42.805,6.029,-0.02,-0.004,0.008,101.0,102.0,101.0,13.4,1505.2,326.3,-0.8,1.8,2470.683,13.29,0.02,258.7
2021-06-09T07:22:03,42.805,6.029,-0.006,-0.018,0.012,102.0,103.0,99.0,13.3,1505.2,327.5,-0.7,1.8,2470.658,13.29,0.018,198.4
2021-06-09T07:25:03,42.805,6.029,-0.008,0.0,-0.008,102.0,102.0,101.0,13.4,1505.2,328.3,-0.8,1.9,2470.688,13.29,0.008,270.0
2021-06-09T07:28:03,42.805,6.029,-0.006,0.0,0.026,102.0,101.0,100.0,13.4,1505.2,325.7,-0.8,1.8,2470.664,13.29,0.006,270.0
2021-06-09T07:31:03,42.805,6.029,-0.035,0.0,-0.02,102.0,104.0,101.0,13.4,1505.2,328.7,-0.7,1.8,2470.635,13.29,0.035,270.0
2021-06-09T07:34:03,42.805,6.029,-0.008,0.005,-0.004,103.0,102.0,102.0,13.3,1505.2,324.5,-0.8,1.8,2470.644,13.29,0.009,302.0
2021-06-09T07:37:03,42.805,6.029,-0.004,-0.011,-0.013,104.0,103.0,100.0,13.3,1505.2,326.8,-0.8,1.8,2470.686,13.29,0.011,200.0
2021-06-09T07:40:03,42.805,6.029,-0.027,-0.009,0.0,102.0,102.0,102.0,13.3,1505.2,328.0,-0.8,1.8,2470.671,13.29,0.028,251.6
2021-06-09T07:43:03,42.805,6.029,-0.013,-0.007,-0.028,102.0,103.0,101.0,13.3,1505.2,325.8,-0.7,1.8,2470.64,13.29,0.014,241.7
2021-06-09T07:46:03,42.805,6.029,-0.034,-0.013,-0.004,102.0,102.0,100.0,13.4,1505.2,327.4,-0.8,1.8,2470.632,13.29,0.036,249.1
2021-06-09T07:49:03,42.805,6.029,-0.013,-0.001,0.022,102.0,101.0,101.0,13.4,1505.2,325.7,-0.7,1.8,2470.618,13.29,0.013,265.6
2021-06-09T07:52:03,42.805,6.029,-0.026,-0.031,-0.02,103.0,102.0,100.0,13.3,1505.2,327.8,-0.8,1.8,2470.651,13.29,0.04,220.0
2021-06-09T07:55:03,42.805,6.029,-0.018,-0.012,0.024,102.0,103.0,101.0,13.4,1505.2,327.4,-0.7,1.8,2470.654,13.29,0.021,236.3
2021-06-09T07:58:03,42.805,6.029,-0.011,-0.01,0.004,102.0,102.0,101.0,13.4,1505.2,328.6,-0.8,1.8,2470.579,13.29,0.014,227.7
2021-06-09T08:04:03,42.805,6.029,-0.025,0.001,0.027,103.0,102.0,100.0,13.3,1505.2,327.7,-0.7,1.8,2470.652,13.28,0.025,272.3
2021-06-09T08:07:03,42.805,6.029,-0.029,0.01,0.012,101.0,102.0,101.0,13.3,1505.2,327.6,-0.8,1.8,2470.596,13.28,0.03,289.0
2021-06-09T08:10:03,42.805,6.029,-0.027,-0.016,-0.003,104.0,102.0,99.0,13.4,1505.2,325.4,-0.7,1.8,2470.612,13.28,0.031,239.3
2021-06-09T08:13:03,42.805,6.029,0.005,0.001,0.037,101.0,104.0,102.0,13.4,1505.2,324.6,-0.7,1.9,2470.555,13.28,0.005,78.7
2021-06-09T08:16:03,42.805,6.029,-0.024,-0.001,0.03,103.0,102.0,101.0,13.4,1505.2,327.1,-0.7,1.8,2470.596,13.29,0.024,267.6
2021-06-09T08:19:03,42.805,6.029,-0.032,-0.002,0.012,102.0,102.0,101.0,13.4,1505.2,325.4,-0.7,1.8,2470.569,13.29,0.032,266.4
2021-06-09T08:22:03,42.805,6.029,-0.013,0.001,-0.007,104.0,101.0,101.0,13.3,1505.2,326.5,-0.8,1.8,2470.533,13.29,0.013,274.4
2021-06-09T08:25:03,42.805,6.029,-0.015,0.004,0.014,104.0,103.0,101.0,13.3,1505.2,327.4,-0.7,1.8,2470.515,13.29,0.015,284.9
2021-06-09T08:28:03,42.805,6.029,0.008,0.013,0.015,102.0,103.0,101.0,13.4,1505.2,328.3,-0.8,1.8,2470.525,13.29,0.015,31.6
2021-06-09T08:31:03,42.805,6.029,-0.007,0.0,0.022,102.0,103.0,101.0,13.4,1505.2,328.9,-0.8,1.8,2470.542,13.29,0.007,270.0
2021-06-09T08:34:03,42.805,6.029,-0.019,-0.003,0.051,103.0,103.0,101.0,13.4,1505.2,325.1,-0.8,1.8,2470.519,13.29,0.019,261.0
2021-06-09T08:37:03,42.805,6.029,-0.018,0.024,0.008,102.0,103.0,102.0,13.3,1505.2,327.8,-0.7,1.8,2470.521,13.29,0.03,323.1
2021-06-09T08:40:03,42.805,6.029,-0.007,0.01,0.031,102.0,104.0,102.0,13.4,1505.2,328.7,-0.7,1.8,2470.543,13.29,0.012,325.0
2021-06-09T08:43:03,42.805,6.029,-0.006,-0.001,0.005,102.0,104.0,103.0,13.4,1505.2,325.4,-0.8,1.8,2470.603,13.29,0.006,260.5
2021-06-09T08:46:03,42.805,6.029,-0.016,0.02,0.024,102.0,103.0,101.0,13.4,1505.2,328.1,-0.7,1.8,2470.551,13.29,0.025,321.3
2021-06-09T08:49:03,42.805,6.029,-0.014,-0.008,0.023,103.0,103.0,101.0,13.4,1505.2,326.1,-0.7,1.8,2470.558,13.29,0.016,240.3
2021-06-09T08:52:03,42.805,6.029,-0.02,-0.004,0.009,103.0,103.0,101.0,13.4,1505.2,328.2,-0.7,1.8,2470.518,13.29,0.02,258.7
2021-06-09T08:55:03,42.805,6.029,0.0,0.008,0.026,104.0,103.0,101.0,13.3,1505.2,328.8,-0.7,1.9,2470.561,13.29,0.008,0.0
2021-06-09T08:58:03,42.805,6.029,0.008,-0.003,0.014,103.0,103.0,100.0,13.4,1505.2,326.8,-0.7,1.8,2470.579,13.29,0.008,110.6
2021-06-09T09:04:03,42.805,6.029,-0.001,-0.017,0.016,103.0,103.0,101.0,13.4,1505.2,328.4,-0.8,1.8,2470.614,13.28,0.017,183.4
2021-06-09T09:07:03,42.805,6.029,-0.006,-0.011,0.003,104.0,103.0,101.0,13.4,1505.2,326.5,-0.7,1.8,2470.554,13.28,0.012,208.6
2021-06-09T09:10:03,42.805,6.029,-0.025,0.004,0.034,104.0,102.0,101.0,13.3,1505.2,328.2,-0.7,1.8,2470.593,13.28,0.025,279.1
2021-06-09T09:13:03,42.805,6.029,-0.017,-0.008,-0.02,103.0,103.0,101.0,13.3,1505.2,327.2,-0.8,1.8,2470.59,13.28,0.018,244.8
2021-06-09T09:16:03,42.805,6.029,-0.019,0.005,0.001,103.0,104.0,102.0,13.3,1505.2,329.3,-0.7,1.8,2470.572,13.29,0.019,284.7
2021-06-09T09:19:03,42.805,6.029,-0.004,-0.001,0.012,102.0,104.0,102.0,13.4,1505.2,325.0,-0.8,1.8,2470.58,13.29,0.004,256.0
2021-06-09T09:22:03,42.805,6.029,-0.017,-0.007,-0.009,102.0,105.0,101.0,13.4,1505.2,325.8,-0.7,1.8,2470.564,13.29,0.018,247.6
2021-06-09T09:25:03,42.805,6.029,-0.006,0.013,-0.007,102.0,104.0,104.0,13.4,1505.2,329.7,-0.7,1.8,2470.577,13.29,0.014,335.2
2021-06-09T09:28:03,42.805,6.029,-0.016,-0.023,-0.016,103.0,104.0,101.0,13.3,1505.2,325.1,-0.8,1.8,2470.592,13.29,0.028,214.8
2021-06-09T09:31:03,42.805,6.029,-0.006,-0.006,0.011,104.0,103.0,101.0,13.3,1505.2,326.7,-0.7,1.8,2470.576,13.29,0.008,225.0
2021-06-09T09:34:03,42.805,6.029,0.008,0.022,0.037,103.0,102.0,103.0,13.4,1505.2,329.6,-0.7,1.8,2470.596,13.29,0.023,20.0
2021-06-09T09:37:03,42.805,6.029,-0.005,-0.007,0.0,102.0,103.0,102.0,13.4,1505.2,329.9,-0.8,1.8,2470.599,13.29,0.008,215.5
2021-06-09T09:40:03,42.805,6.029,-0.005,-0.004,0.004,103.0,104.0,102.0,13.4,1505.2,327.4,-0.7,1.9,2470.564,13.29,0.006,231.3
2021-06-09T09:43:03,42.805,6.029,-0.022,-0.016,0.01,103.0,104.0,102.0,13.4,1505.2,325.5,-0.8,1.8,2470.605,13.29,0.027,234.0
2021-06-09T09:46:03,42.805,6.029,-0.017,-0.016,-0.007,103.0,104.0,101.0,13.4,1505.2,329.5,-0.8,1.8,2470.559,13.29,0.023,226.7
2021-06-09T09:49:03,42.805,6.029,-0.002,-0.023,0.001,104.0,103.0,104.0,13.4,1505.2,325.8,-0.8,1.8,2470.558,13.29,0.023,185.0
2021-06-09T09:52:03,42.805,6.029,-0.008,-0.003,0.001,104.0,103.0,101.0,13.4,1505.2,328.0,-0.8,1.8,2470.55,13.29,0.008,249.4
2021-06-09T09:55:03,42.805,6.029,-0.019,-0.014,0.009,104.0,103.0,101.0,13.3,1505.2,326.4,-0.8,1.9,2470.567,13.29,0.023,233.6